Flag for Venezuela Weather past 2 weeks in Maracay, Venezuela

Now
73 °F

Passing clouds.


Feels Like: 72 °F
Forecast: 69 / 90 °F
Wind: No wind

Location: Valencia Airport

Current Time: Sep 2, 2014 at 6:19:01 AM

Latest Report: Sep 2, 2014 at 5:30 AM


Visibility: N/A

Pressure: 29.95 "Hg

Humidity: 89%

Dew point: 70 °F

Location of MaracayLocation

Historic Weather in Maracay — Graph

°F

Maracay temperature yesterday

Maximum temperature yesterday: 84 °F (at 11:30 AM)
Minimum temperature yesterday: 73 °F (at 5:30 AM)
Average temperature yesterday: 80 °F

Past Weeks' High & Low Weather Summary

 TemperatureHumidityPressure
High90 °F (Aug 25, 2:30 PM)94% (Aug 18, 6:30 AM)30.07 "Hg (Aug 18, 6:30 AM)
Low70 °F (Aug 18, 9:30 PM)52% (Aug 21, 1:30 PM)29.80 "Hg (Aug 25, 5:30 PM)
Average79 °F76%29.97 "Hg
* Reported Aug 18 5:30 AM — Sep 2 5:30 AM, Maracay, Weather by CustomWeather, © 2014

Note: Actual official high and low records may vary slightly from our data, if they occured in-between our weather recording intervals... More about our weather records

Advertising

Maracay weather history for previous 24 hours

 ConditionsComfort  
Time TempWeatherWind HumidityBarometerVisibility
5:30 AM
Sep 2
73 °FPassing clouds.No wind89%29.95 "HgN/A
8:30 PM
Sep 1
77 °FPassing clouds.2 mph83%29.98 "HgN/A
7:30 PM79 °FPassing clouds.5 mph79%29.95 "HgN/A
6:30 PM81 °FPartly cloudy.3 mph74%29.92 "HgN/A
5:30 PM82 °FScattered clouds.7 mph66%29.89 "HgN/A
4:30 PM82 °FBroken clouds.7 mph70%29.92 "HgN/A
3:30 PM82 °FPartly sunny.6 mph70%29.92 "HgN/A
2:30 PM82 °FPartly sunny.10 mph74%29.95 "HgN/A
1:30 PM84 °FPartly sunny.5 mph70%29.98 "HgN/A
12:30 PM82 °FPartly sunny.6 mph70%30.01 "HgN/A
11:30 AM84 °FPartly sunny.5 mph70%30.04 "HgN/A
10:30 AM82 °FPartly sunny.7 mph74%30.04 "HgN/A
9:30 AM82 °FPartly sunny.6 mph70%30.04 "HgN/A
8:30 AM81 °FBroken clouds.5 mph74%30.04 "HgN/A
7:30 AM77 °FBroken clouds.2 mph89%30.01 "HgN/A
6:30 AM75 °FBroken clouds.2 mph89%30.01 "HgN/A
Weather by CustomWeather, © 2014

See weather overviewHow to use our weather pages